Location: F?ge?el
(45.8833°N, 22.5833°E)
Time: 13:22:29
(UTC+00:00)

Cosmos 1513 Rocket - Pass Details

Date: 17 November 2025
Orbit: 939 x 1007 km, 82.9° (Epoch: 06 December)

Event Time Altitude Azimuth Distance (km) Brightness Sun altitude
Rises 16:13:49 0° 179° (S) 3,687 7.7 -13.5°
Reaches altitude 10° 16:16:19 10° 177° (S) 2,751 7.0 -13.9°
Maximum altitude 16:22:37 72° 95° (E) 1,056 4.5 -15.0°
Drops below altitude 10° 16:29:01 10° 12° (NNE) 2,794 6.7 -16.1°
Sets 16:31:34 0° 11° (N) 3,749 7.3 -16.5°
